EW7119 Weather Reports


Display with metric or nautical units.
time (UTC)temp
F
wind
direction
speed
MPH
gust
MPH
rain 1hr
in
rain 24hr
in
rain mn
in
humidity
%
barometer
mb
20260507090116 24 57 2.0 4.0 0.00 0.27 0.00 71 1022.1
20260507084614 24 65 0.0 3.0 0.00 0.27 0.00 71 1022.1
20260507083112 23 73 1.0 2.0 0.00 0.27 0.00 73 1022.0
20260507081612 24 67 0.0 0.0 0.00 0.27 0.00 72 1021.9
20260507080132 24 67 0.0 0.0 0.00 0.27 0.00 72 1022.0
20260507074518 24 67 0.0 4.0 0.00 0.27 0.00 74 1021.8
20260507073130 24 60 2.0 3.0 0.00 0.27 0.00 74 1021.8
20260507071627 25 43 0.0 0.0 0.00 0.27 0.00 73 1022.0
20260507070122 25 43 0.0 0.0 0.00 0.27 0.00 73 1021.7
20260507064619 26 42 1.0 4.0 0.00 0.27 0.00 70 1021.5
20260507063118 26 28 0.0 0.0 0.00 0.27 0.00 70 1021.5
20260507061618 25 28 0.0 0.0 0.00 0.27 0.00 77 1021.2
20260507060105 25 28 0.0 0.0 0.00 0.27 0.00 78 1020.9
20260507054511 25 74 0.0 0.0 0.00 0.27 0.27 79 1020.7
20260507053025 25 55 0.0 0.0 0.00 0.27 0.27 81 1020.5
20260507051549 25 55 0.0 0.0 0.00 0.27 0.27 82 1020.0
20260507050052 25 56 0.0 0.0 0.00 0.27 0.27 83 1019.8
20260507044600 26 55 0.0 0.0 0.00 0.27 0.27 83 1019.9
20260507043110 26 56 0.0 0.0 0.00 0.27 0.27 83 1019.6
20260507041602 26 57 0.0 0.0 0.00 0.27 0.27 85 1019.6
20260507040110 26 57 0.0 0.0 0.00 0.27 0.27 85 1019.6
20260507034609 26 57 0.0 0.0 0.00 0.27 0.27 87 1019.3
20260507033109 25 57 0.0 0.0 0.00 0.27 0.27 89 1019.2
20260507031545 25 88 0.0 0.0 0.00 0.27 0.27 90 1019.0
20260507030057 25 88 0.0 2.0 0.00 0.27 0.27 91 1018.7
20260507024602 25 101 0.0 4.0 0.00 0.27 0.27 91 1018.6
20260507023116 24 156 0.0 0.0 0.00 0.27 0.27 90 1018.3
20260507021620 25 156 0.0 0.0 0.00 0.27 0.27 89 1018.2
20260507020131 25 156 0.0 0.0 0.00 0.27 0.27 88 1017.9
20260507014519 26 156 0.0 0.0 0.01 0.27 0.27 87 1017.6
20260507013050 27 156 0.0 3.0 0.01 0.27 0.27 86 1017.5
20260507011552 28 167 1.0 4.0 0.02 0.27 0.27 85 1017.3
20260507010109 29 153 1.0 3.0 0.02 0.27 0.27 84 1017.0
20260507004521 30 169 1.0 5.0 0.02 0.26 0.26 84 1016.7
20260507003132 30 227 2.0 4.0 0.03 0.26 0.26 82 1016.6
20260507001612 31 154 2.0 5.0 0.03 0.25 0.25 80 1016.6
20260507000110 31 174 2.0 5.0 0.04 0.25 0.25 79 1016.4
20260506234611 32 198 0.0 6.0 0.04 0.24 0.24 79 1016.2
20260506233119 32 270 0.0 7.0 0.04 0.23 0.23 82 1016.2
20260506231625 31 258 3.0 6.0 0.03 0.22 0.22 82 1016.2
20260506230106 31 189 3.0 8.0 0.03 0.21 0.21 82 1015.9
20260506224546 30 219 0.0 6.0 0.03 0.20 0.20 85 1015.6
20260506223056 30 169 1.0 4.0 0.02 0.19 0.19 83 1015.6
20260506221604 29 219 0.0 4.0 0.04 0.19 0.19 85 1015.7
20260506220110 29 209 1.0 3.0 0.04 0.18 0.18 85 1015.7
20260506214616 29 233 0.0 5.0 0.06 0.17 0.17 85 1015.7
20260506213012 29 239 0.0 7.0 0.06 0.16 0.16 85 1015.6
20260506211526 29 250 1.0 5.0 0.07 0.15 0.15 83 1015.4
20260506210033 30 173 2.0 8.0 0.07 0.14 0.14 82 1015.3
20260506204544 30 165 3.0 8.0 0.06 0.11 0.11 83 1015.4
20260506203053 29 227 1.0 6.0 0.08 0.10 0.10 86 1015.1
20260506201535 28 263 2.0 5.0 0.07 0.08 0.08 85 1015.2
20260506200053 28 264 2.0 6.0 0.06 0.07 0.07 85 1015.0
20260506194550 29 268 2.0 6.0 0.03 0.04 0.04 86 1014.9
20260506193044 28 240 2.0 7.0 0.01 0.02 0.02 86 1014.7
20260506191518 28 250 1.0 6.0 0.00 0.01 0.01 86 1014.7
20260506190022 28 155 2.0 6.0 0.01 0.01 0.01 86 1014.4
20260506184536 28 178 2.0 4.0 0.01 0.01 0.01 82 1014.4
20260506183030 28 184 2.0 5.0 0.01 0.01 0.01 86 1014.3
20260506181549 26 166 1.0 5.0 0.01 0.01 0.01 88 1014.3
20260506180040 26 251 2.0 5.0 0.00 0.00 0.00 86 1014.6
20260506174627 26 192 1.0 4.0 0.00 0.00 0.00 88 1014.4
20260506173044 25 321 1.0 3.0 0.00 0.00 0.00 88 1014.1
20260506171627 25 321 1.0 4.0 0.00 0.00 0.00 90 1013.8
20260506170130 24 84 0.0 4.0 0.00 0.00 0.00 91 1013.6
20260506164558 23 44 0.0 5.0 0.00 0.00 0.00 91 1013.3
20260506163102 22 319 2.0 6.0 0.00 0.00 0.00 91 1013.2
20260506161557 23 313 4.0 8.0 0.00 0.00 0.00 90 1012.7
20260506160112 24 319 2.0 5.0 0.00 0.00 0.00 90 1012.4
20260506154555 24 312 2.0 4.0 0.00 0.00 0.00 91 1012.1
20260506153102 25 298 1.0 3.0 0.00 0.00 0.00 91 1011.8
20260506151609 25 165 0.0 2.0 0.00 0.00 0.00 91 1011.4
20260506144612 24 223 1.0 7.0 0.00 0.00 0.00 91 1011.3
20260506143105 24 323 0.0 0.0 0.00 0.00 0.00 92 1011.2
20260506141614 24 323 0.0 0.0 0.00 0.00 0.00 92 1011.2
20260506140123 24 325 0.0 0.0 0.00 0.00 0.00 92 1010.9
20260506134632 23 325 0.0 0.0 0.00 0.00 0.00 92 1010.8
20260506133020 24 325 0.0 3.0 0.00 0.00 0.00 92 1010.8
20260506131537 23 331 0.0 0.0 0.00 0.00 0.00 92 1010.0
20260506130100 23 331 0.0 0.0 0.00 0.00 0.00 92 1010.0
20260506124540 23 331 0.0 0.0 0.00 0.00 0.00 92 1009.8
20260506123051 23 128 0.0 0.0 0.00 0.00 0.00 92 1009.5
20260506121607 23 128 0.0 2.0 0.00 0.00 0.00 92 1008.9
20260506120125 22 135 2.0 6.0 0.00 0.00 0.00 91 1008.5
20260506114612 22 69 2.0 8.0 0.00 0.00 0.00 91 1008.8
20260506113010 22 338 3.0 8.0 0.00 0.00 0.00 91 1008.9
20260506111515 23 318 1.0 4.0 0.00 0.00 0.00 92 1008.6
20260506110039 23 343 0.0 4.0 0.00 0.00 0.00 92 1008.3
20260506104551 23 304 1.0 3.0 0.00 0.00 0.00 92 1008.1
20260506103038 23 304 0.0 3.0 0.00 0.00 0.00 92 1008.0
20260506101550 24 309 0.0 2.0 0.00 0.00 0.00 92 1007.9
20260506100050 24 341 0.0 0.0 0.00 0.00 0.00 92 1007.7
20260506094551 24 341 0.0 0.0 0.00 0.00 0.00 92 1007.5
20260506093055 24 349 0.0 4.0 0.00 0.00 0.00 92 1007.5
20260506091553 24 327 0.0 4.0 0.00 0.00 0.00 92 1007.7